[[{"header":{"parameterUnit":"m.s-1","parameterCategory":1,"la1":30.2992,"la2":30.254,"lo1":-89.0895,"lo2":-89.0443,"dy":0.0025,"dx":0.0025,"nx":19,"ny":19,"refTime":"2026-05-04T09:00:00:Z","depth":0,"parameterNumber":2,"parameterNumberName":"U-component_of_WINDS"},"data":[0,0,0,-0.3354,-0.3354,-0.3397,-0.3397,-0.3437,-0.3437,0,0,0,0,0,0,0,0,0,0,0,-0.3332,-0.3331,-0.3354,-0.3354,-0.3397,-0.3397,-0.3437,-0.3437,0,0,0,0,0,0,0,0,0,0,0,-0.3332,-0.3332,-0.3331,-0.3355,-0.3397,-0.3397,-0.3437,-0.341,0,0,0,0,0,0,0,0,0,0,-0.3371,-0.3341,-0.3332,-0.3331,-0.3355,-0.3397,-0.3397,-0.3409,-0.3412,-0.3411,0,-0.3407,0,-0.3423,-0.3439,-0.3439,0,0,0,-0.3362,-0.3339,-0.3359,-0.3331,-0.3355,-0.3397,-0.338,-0.3411,-0.3414,-0.3414,-0.3408,-0.341,-0.3423,-0.3439,-0.3439,-0.3411,-0.341,0,0,-0.3359,-0.3334,-0.3357,-0.3361,-0.3353,-0.3378,-0.3381,-0.3413,-0.3404,-0.3408,-0.3411,-0.3424,-0.3439,-0.3439,-0.3411,-0.341,0,0,0,-0.3348,-0.3332,-0.3352,-0.3358,-0.3367,-0.3379,-0.3383,-0.3403,-0.3411,-0.3412,-0.3424,-0.3439,-0.3439,-0.3412,-0.3411,-0.3363,0,0,0,-0.3347,-0.3325,-0.335,-0.3335,-0.3366,-0.3385,-0.3372,-0.3409,-0.3414,-0.3424,-0.3439,-0.344,-0.3412,-0.3411,-0.3366,-0.3345,0,0,0,-0.3332,-0.3324,-0.3327,-0.3334,-0.3351,-0.3386,-0.3396,-0.3411,-0.3421,-0.3439,-0.344,-0.3412,-0.3411,-0.3368,-0.3349,-0.3331,0,0,0,-0.3309,-0.3283,-0.3325,-0.3302,-0.3351,-0.3356,-0.3396,-0.3401,-0.3411,-0.3439,-0.3412,-0.3411,-0.3369,-0.3351,-0.3333,-0.3312,-0.33,0,0,-0.3263,-0.3277,-0.3265,-0.3304,-0.3295,-0.3351,-0.3336,-0.3368,-0.3393,-0.3403,-0.3403,-0.3365,-0.3349,-0.3332,-0.3244,-0.3234,0,0,0,-0.3242,-0.3233,-0.3236,-0.3244,-0.3268,-0.3288,-0.3326,-0.3338,-0.3348,-0.3393,-0.3354,-0.3346,-0.3336,-0.3327,-0.3319,-0.3313,-0.3405,-0.3406,-0.3406,-0.314,-0.3173,-0.3156,-0.3195,-0.3202,-0.3241,-0.3251,-0.3274,-0.3305,-0.3296,-0.3299,-0.3242,-0.323,-0.3224,-0.3218,-0.329,-0.329,-0.329,-0.329,-0.3076,-0.3069,-0.3111,-0.311,-0.3146,-0.3145,-0.3182,-0.3205,-0.321,-0.3242,-0.3235,-0.3267,-0.3213,-0.3209,-0.3286,-0.3287,-0.3287,-0.3288,-0.3288,-0.3013,-0.3016,-0.3031,-0.3047,-0.3055,-0.3095,-0.3098,-0.313,-0.3161,-0.3154,-0.3162,-0.3163,-0.3168,-0.3156,-0.3155,-0.3155,-0.3155,-0.3155,-0.3155,-0.2943,-0.2962,-0.296,-0.2984,-0.2994,-0.3011,-0.3051,-0.3061,-0.3082,-0.3105,-0.3105,-0.3138,-0.3201,-0.3217,-0.3152,-0.3152,-0.3153,-0.3153,-0.3153,-0.2866,-0.2889,-0.2886,-0.2896,-0.2928,-0.2934,-0.2975,-0.2994,-0.3008,-0.3009,-0.3043,-0.3084,-0.3101,-0.3108,-0.3121,-0.3035,-0.3035,-0.3035,-0.3035,-0.2814,-0.2826,-0.2831,-0.2845,-0.2862,-0.2899,-0.2896,-0.2927,-0.2963,-0.2973,-0.299,-0.301,-0.3016,-0.303,-0.3038,-0.3051,-0.2949,-0.2949,-0.2949,-0.277,-0.2785,-0.2776,-0.281,-0.2837,-0.286,-0.2859,-0.2873,-0.2919,-0.2946,-0.2983,-0.2986,-0.3019,-0.3028,-0.3056,-0.3068,-0.3093,0,0]},{"header":{"parameterUnit":"m.s-1","parameterCategory":1,"la1":30.2992,"la2":30.254,"lo1":-89.0895,"lo2":-89.0443,"dy":0.0025,"dx":0.0025,"nx":19,"ny":19,"refTime":"2026-05-04T09:00:00:Z","depth":0,"parameterNumber":3,"parameterNumberName":"V-component_of_WINDS"},"data":[0,0,0,6.3505,6.3508,6.3666,6.3667,6.387,6.3871,0,0,0,0,0,0,0,0,0,0,0,6.3463,6.3464,6.3504,6.3509,6.3666,6.3667,6.3869,6.3871,0,0,0,0,0,0,0,0,0,0,0,6.3462,6.3464,6.3466,6.3509,6.3666,6.3667,6.3869,6.3748,0,0,0,0,0,0,0,0,0,0,6.3594,6.3562,6.3464,6.3466,6.351,6.3666,6.3667,6.3742,6.3756,6.38,0,6.3844,0,6.3861,6.3886,6.3886,0,0,0,6.3504,6.3551,6.3589,6.3466,6.3512,6.3666,6.3594,6.375,6.3765,6.3818,6.3847,6.3854,6.3865,6.3887,6.3888,6.4165,6.4166,0,0,6.3495,6.3493,6.3579,6.3599,6.358,6.3589,6.3599,6.3759,6.3789,6.3848,6.3859,6.3868,6.3888,6.389,6.4163,6.4165,0,0,0,6.3473,6.3487,6.3522,6.3591,6.362,6.3593,6.3605,6.3782,6.3794,6.3861,6.387,6.3889,6.3892,6.4162,6.4164,6.4237,0,0,0,6.3468,6.3474,6.3518,6.3518,6.3617,6.3704,6.3624,6.3782,6.3801,6.3869,6.389,6.3894,6.416,6.4163,6.4231,6.4271,0,0,0,6.3451,6.3472,6.3497,6.3518,6.3586,6.3701,6.3722,6.3786,6.3807,6.3886,6.3895,6.4159,6.4162,6.4226,6.4263,6.4342,0,0,0,6.3431,6.356,6.3498,6.3645,6.3585,6.3747,6.3721,6.3841,6.3918,6.3891,6.416,6.4164,6.4225,6.4258,6.4337,6.4408,6.4438,0,0,6.3592,6.3579,6.3665,6.3615,6.3788,6.3723,6.3904,6.3976,6.3984,6.4103,6.4109,6.4233,6.4262,6.4341,6.4608,6.4632,0,0,0,6.3715,6.3777,6.3823,6.3898,6.3957,6.4009,6.4053,6.4079,6.4181,6.4046,6.4284,6.4301,6.4347,6.4381,6.4401,6.444,6.418,6.4179,6.4179,6.3938,6.3943,6.4085,6.4109,6.4181,6.4224,6.4282,6.4323,6.4306,6.4362,6.4397,6.4559,6.4599,6.4614,6.4655,6.4436,6.4437,6.4437,6.4437,6.4173,6.426,6.4234,6.4363,6.4365,6.4472,6.4517,6.4501,6.4598,6.4534,6.4575,6.4503,6.4641,6.4676,6.4443,6.4442,6.4441,6.444,6.444,6.4319,6.4361,6.4392,6.4499,6.458,6.4597,6.4692,6.4691,6.4689,6.473,6.4765,6.4764,6.4761,6.4747,6.4748,6.4748,6.4749,6.4749,6.475,6.4458,6.449,6.4572,6.4644,6.469,6.4751,6.4794,6.4839,6.4887,6.4878,6.4878,6.4853,6.4654,6.4603,6.4758,6.4757,6.4756,6.4755,6.4754,6.4692,6.4638,6.4764,6.4811,6.4894,6.4973,6.497,6.506,6.5096,6.5142,6.5108,6.4962,6.4947,6.4931,6.4889,6.5109,6.5109,6.5109,6.5109,6.4814,6.4807,6.4934,6.5008,6.5081,6.509,6.5228,6.5261,6.5287,6.5309,6.5277,6.5221,6.5204,6.5199,6.5177,6.5138,6.5416,6.5416,6.5417,6.4957,6.4956,6.5076,6.5103,6.5167,6.5221,6.5349,6.5432,6.545,6.5429,6.5325,6.5312,6.5221,6.5192,6.5169,6.5135,6.5062,0,0]}]]